[Iaude] MPEC L06: 2024 KR1 [a=2.20,e=0.47,i=8.2,H=23.5]

mpec at cfa.harvard.edu mpec at cfa.harvard.edu
Sat Jun 1 03:07:42 EDT 2024


M.P.E.C. 2024-L06                                  Issued 2024 June 1, 07:06 UT

     The Minor Planet Electronic Circulars contain information on unusual
         minor planets, routine data on comets and natural satellites,
         and occasional editorial announcements.  They are published
    on behalf of Division F of the International Astronomical Union by the
          Minor Planet Center, Smithsonian Astrophysical Observatory,
                          Cambridge, MA 02138, U.S.A.
			  
             Prepared using the Tamkin Foundation Computer Network

                              MPC at CFA.HARVARD.EDU
            URL https://www.minorplanetcenter.net/    ISSN 1523-6714

                                    2024 KR1                                    


Observations:
     K24K01R* C2024 05 30.39326515 41 36.260-13 09 10.23         21.59wXEL006F52
     K24K01R  C2024 05 30.40581115 41 35.916-13 09 34.57         21.52wXEL006F52
     K24K01R  C2024 05 30.41828715 41 35.548-13 09 58.85         21.43wXEL006F52
     K24K01R  C2024 05 30.43077015 41 35.205-13 10 22.80         21.26wXEL006F52
     K24K01R  C2024 05 30.48975515 41 33.635-13 12 15.99         21.76GVEL006F52
     K24K01R  C2024 05 30.49040715 41 33.618-13 12 17.18         21.18GVEL006F52
     K24K01R KC2024 05 31.20189415 41 26.17 -13 35 47.7          21.4 GVEL006H21
     K24K01R KC2024 05 31.20769115 41 26.02 -13 35 59.2          21.6 GVEL006H21
     K24K01R KC2024 05 31.21067715 41 25.96 -13 36 05.6          21.3 GVEL006H21
     K24K01R KC2024 05 31.21491415 41 25.87 -13 36 14.0          21.6 GVEL006H21
     K24K01R  C2024 05 31.26383115 41 25.346-13 37 49.39         21.5 GVEL006H01
     K24K01R KC2024 05 31.26586 15 41 25.46 -13 37 52.6          21.5 GVEL006291
     K24K01R  C2024 05 31.26785315 41 25.244-13 37 57.42         21.2 GVEL006H01
     K24K01R KC2024 05 31.27344 15 41 25.28 -13 38 07.7          21.9 GVEL006291
     K24K01R KC2024 05 31.28100 15 41 25.07 -13 38 22.7          21.8 GVEL006291
     K24K01R  C2024 05 31.28557315 41 24.788-13 38 32.74         21.2 GVEL006H01
     K24K01R  C2024 05 31.28899415 41 24.704-13 38 39.53         21.2 GVEL006H01
     K24K01R KC2024 05 31.30024115 41 24.540-13 39 01.40         21.51GVEL006V06
     K24K01R KC2024 05 31.30224515 41 24.500-13 39 05.50         21.74GVEL006V06
     K24K01R KC2024 05 31.34522415 41 23.420-13 40 30.70         21.22GVEL006V06
     K24K01R !C2024 06 01.27730 15 41 14.04 -14 12 14.8          20.4 GVEL006673
     K24K01R !C2024 06 01.28222 15 41 14.00 -14 12 25.2                VEL006673

Observer details:
291 LPL/Spacewatch II.  Observer A. F. Tubbiolo.  1.8-m f/2.7 reflector + CCD.
673 Table Mountain Observatory, Wrightwood.  Observer J. Pittichova.  1.0-m
    f/15 reflector + CCD.
F52 Pan-STARRS 2, Haleakala.  Observers J. Herman, T. Lowe, P. Minguez, A.
    Schultz, I. Smith.  Measurers K. Chambers, T. de Boer, J. Fairlamb, H.
    Gao, M. Huber, C.-C. Lin, E. Magnier, Y. Ramanjooloo, R. Wainscoat, R.
    Weryk.  1.8-m Ritchey-Chretien + CCD.
H01 Magdalena Ridge Observatory, Socorro.  Observers W. H. Ryan, E. V. Ryan.
    Measurer W. H. Ryan.  2.4-m f/8.9 Ritchey-Chretien + CCD.
H21 Astronomical Research Observatory, Westfield.  Observer R. Holmes.
    Measurers T. Linder, R. Holmes, L. Horn.  1.3-m f/4.0 astrograph + CCD.
V06 Catalina Sky Survey-Kuiper.  Observer V. F. Carvajal.  Measurers T.
    Beuden, V. F. Carvajal, D. Fay, J. B. Fazekas, D. C. Fuls, A. R. Gibbs, A.
    D. Grauer, H. Groeller, J. K. Hogan, R. A. Kowalski, S. M. Larson, G. J.
    Leonard, D. Rankin, R. L. Seaman, F. C. Shelly, K. W. Wierzchos.  1.55-m
    reflector + 1K CCD.

Orbital elements:
2024 KR1                                                 Earth MOID = 0.1624 AU
Epoch 2024 Mar. 31.0 TT = JDT 2460400.5                 MPC                     
M 329.17192              (2000.0)            P               Q                  
n   0.30212302     Peri.  209.16968     +0.24256915     +0.96023962             
a   2.1996158      Node    75.15458     -0.86006193     +0.27876230             
e   0.4702417      Incl.    8.22006     -0.44883591     -0.01521343             
P   3.26           H   23.55          G   0.15           U   9                  
Residuals in seconds of arc
240530 F52  0.6+  0.0     240531 H21  0.0   0.2-    240531 H01  0.1+  0.0
240530 F52  0.6+  0.1-    240531 H21  0.1+  0.2-    240531 V06  0.0   0.0
240530 F52  0.2+  0.2-    240531 H01  0.3+  0.0     240531 V06  0.2+  0.1-
240530 F52  0.2+  0.1-    240531 291  0.3+  0.1-    240531 V06  0.2-  0.1+
240530 F52  0.1-  0.0     240531 H01  0.2+  0.0     240601 673  0.5-  0.0
240530 F52  0.1-  0.1+    240531 291  0.4+  0.0     240601 673  0.7+  0.2-
240531 H21  0.1-  0.2+    240531 291  0.2+  0.1+
240531 H21  0.2-  0.2+    240531 H01  0.1+  0.0

Ephemeris:
2024 KR1                 a,e,i = 2.20, 0.47, 8                   q = 1.1653
Date    TT    R. A. (2000) Decl.     Delta      r    Elong.  Phase     V
2024 05 02    15 46 18.5 -04 52 03   0.3893  1.3801   160.1    14.4    23.0
...
2024 05 17    15 44 58.2 -07 41 13   0.2990  1.3054   168.2     9.1    22.1
...
2024 05 25    15 42 55.4 -10 32 34   0.2620  1.2703   168.0     9.5    21.8
...
2024 05 31    15 41 28.6 -13 28 36   0.2391  1.2466   165.3    11.9    21.6
2024 06 01    15 41 17.0 -14 02 13   0.2357  1.2429   164.7    12.4    21.6
2024 06 02    15 41 06.6 -14 37 04   0.2324  1.2392   164.1    13.0    21.6
...
2024 06 08    15 40 43.8 -18 32 35   0.2149  1.2190   159.8    16.7    21.5
...
2024 06 16    15 43 04.9 -24 52 40   0.1981  1.1967   153.7    22.1    21.5
...
2024 07 01    16 03 22.2 -38 47 12   0.1854  1.1704   143.2    31.4    21.6

A. U. Tomatic                (C) Copyright 2024 MPC           M.P.E.C. 2024-L06





More information about the Iaude mailing list